CZ-4 DEB, 35334

Orbit data source: Space-Track

CZ-4 DEB, 35334 is space debris in SSO originally from a launch on Thu, 14 Oct 1999 UTC launched from the Taiyaun Space Center, China (TSC). Debris objects in space refer to the collection of defunct objects orbiting the Earth. Examples of debris include non-operational satellites, rocket bodies, and fragments generated from explosions, collisions, or faulty payload assembly.

Loading next visibility...
Identifier
35334, 1999-057SN
Orbit
SSO
Country
Flag of CNCN / PRC
Related business
Manufacturer
Unknown
Mission
Spacecraft
Bus & Motor
Unknown
Mass
Unknown
Launch date (UTC)
1999-10-14 (26 years ago)
Launch vehicle
Unknown
Launch site
Taiyaun Space Center, China (TSC)
Object type
Payload
Rocket body
Debris
Shape & HBR
Unknown shape, 0.1 m
Radar Cross Section
Small (<0.1 m²)

Expand to show TLE details & history
Last TLE update: 12 hours ago

TLE from 12 hours ago
0 CZ-4 DEB
1 35334U 99057SN  25297.40212875  .00003549  00000-0  74503-3 0  9995
2 35334  98.4597 355.6672 0064056  24.6043 335.8189 14.59008531 34017
Epoch: 2025-10-24T09:39Z
TLE epoch observation values (Epoch: 2025-10-24T09:39:03.923Z)
Latitude
-0.00003°
Longitude
177.85331°
Altitude
658.053 km
Speed
7.55 km/s
True Right ascension
23h 42m 40s
True Declination
0° 00' 00"
Sunlit
Object was in full shadow at epoch
Visualization orbit readout
Latitude
Unknown
Longitude
Unknown
Altitude
Unknown
Speed
Unknown
Apparent Right ascension
Unknown
Apparent Declination
Unknown
Sunlit
N/A
Visualization observer readout
Local Sidereal Time
17:19:57
Azimuth
Unknown
Elevation
Unknown
Doppler factor
Unknown
Orbital elements
Apogee altitude
738.77 km
Perigee altitude
648.174 km
Semi-major axis
7,071.609 km
Eccentricity
0.00641
Inclination
98.4597°
RAAN
355.6672°
Arg. of periapsis
24.6043°
True anomaly
335.51602°
Mean anomaly
335.8189°
Eccentric anomaly
335.66768°
Mean motion
3.64977 °/min
Orbital period
98.64 mins
BSTAR
0.00074503
Loading maneuver chart data...
Computing Atmospheric mass density...

Documentation

Showing up to 5 results
|